| time (UTC) | temp F | wind direction | speed MPH | gust MPH | rain 1hr in | rain 24hr in | rain mn in | humidity % | barometer mb |
| 20260508203026 | 84 | 159 | 0.0 | 0.0 | 0.00 | 0.00 | 0.00 | 46 | 1004.7 |
| 20260508201515 | 84 | 216 | 0.0 | 0.0 | 0.00 | 0.00 | 0.00 | 46 | 1004.9 |
| 20260508200015 | 84 | 257 | 0.0 | 0.0 | 0.00 | 0.00 | 0.00 | 48 | 1005.1 |
| 20260508194510 | 83 | 277 | 0.0 | 0.0 | 0.00 | 0.00 | 0.00 | 47 | 1005.2 |
| 20260508193007 | 82 | 288 | 0.0 | 0.0 | 0.00 | 0.00 | 0.00 | 48 | 1005.5 |
| 20260508191505 | 82 | 262 | 0.0 | 0.0 | 0.00 | 0.00 | 0.00 | 48 | 1005.6 |
| 20260508190004 | 82 | 262 | 0.0 | 0.0 | 0.00 | 0.00 | 0.00 | 48 | 1005.7 |
| 20260508184608 | 81 | 256 | 0.0 | 0.0 | 0.00 | 0.00 | 0.00 | 50 | 1005.9 |
| 20260508183059 | 80 | 332 | 0.0 | 1.0 | 0.00 | 0.00 | 0.00 | 50 | 1006.1 |
| 20260508181601 | 80 | 293 | 0.0 | 0.0 | 0.00 | 0.00 | 0.00 | 50 | 1006.4 |
| 20260508180050 | 79 | 271 | 0.0 | 0.0 | 0.00 | 0.00 | 0.00 | 53 | 1006.7 |
| 20260508174549 | 79 | 247 | 0.0 | 0.0 | 0.00 | 0.00 | 0.00 | 50 | 1006.8 |
| 20260508173044 | 78 | 49 | 0.0 | 0.0 | 0.00 | 0.00 | 0.00 | 50 | 1006.9 |
| 20260508171544 | 76 | 319 | 0.0 | 0.0 | 0.00 | 0.00 | 0.00 | 50 | 1007.3 |
| 20260508170040 | 76 | 231 | 0.0 | 0.0 | 0.00 | 0.00 | 0.00 | 48 | 1007.8 |
| 20260508164536 | 76 | 214 | 0.0 | 1.0 | 0.00 | 0.00 | 0.00 | 48 | 1008.1 |
| 20260508163041 | 75 | 240 | 0.0 | 0.0 | 0.00 | 0.00 | 0.00 | 49 | 1008.4 |
| 20260508161545 | 75 | 289 | 0.0 | 0.0 | 0.00 | 0.00 | 0.00 | 50 | 1008.7 |
| 20260508160027 | 73 | 234 | 0.0 | 0.0 | 0.00 | 0.00 | 0.00 | 50 | 1008.8 |
| 20260508154526 | 74 | 295 | 0.0 | 1.0 | 0.00 | 0.00 | 0.00 | 47 | 1008.9 |
| 20260508153040 | 73 | 259 | 0.0 | 0.0 | 0.00 | 0.00 | 0.00 | 51 | 1009.2 |
| 20260508151518 | 71 | 248 | 0.0 | 1.0 | 0.00 | 0.00 | 0.00 | 52 | 1009.4 |
| 20260508150016 | 71 | 215 | 0.0 | 0.0 | 0.00 | 0.00 | 0.00 | 54 | 1009.6 |
| 20260508144513 | 70 | 5 | 0.0 | 0.0 | 0.00 | 0.00 | 0.00 | 55 | 1009.7 |
| 20260508143009 | 69 | 142 | 0.0 | 0.0 | 0.00 | 0.00 | 0.00 | 56 | 1009.8 |
| 20260508141507 | 68 | 302 | 0.0 | 0.0 | 0.00 | 0.00 | 0.00 | 58 | 1009.8 |
| 20260508140119 | 67 | 242 | 0.0 | 0.0 | 0.00 | 0.00 | 0.00 | 58 | 1010.0 |
| 20260508134559 | 66 | 292 | 0.0 | 0.0 | 0.00 | 0.00 | 0.00 | 60 | 1010.0 |
| 20260508133102 | 65 | 260 | 0.0 | 0.0 | 0.00 | 0.00 | 0.00 | 63 | 1010.1 |
| 20260508131555 | 64 | 270 | 0.0 | 0.0 | 0.00 | 0.00 | 0.00 | 64 | 1010.2 |
| 20260508130054 | 63 | 294 | 0.0 | 0.0 | 0.00 | 0.00 | 0.00 | 67 | 1010.3 |
| 20260508124553 | 62 | 266 | 0.0 | 0.0 | 0.00 | 0.00 | 0.00 | 69 | 1010.2 |
| 20260508123053 | 61 | 278 | 0.0 | 0.0 | 0.00 | 0.00 | 0.00 | 71 | 1010.1 |
| 20260508121553 | 60 | 211 | 0.0 | 0.0 | 0.00 | 0.00 | 0.00 | 73 | 1010.1 |
| 20260508120100 | 59 | 228 | 0.0 | 0.0 | 0.00 | 0.00 | 0.00 | 74 | 1010.0 |
| 20260508114600 | 59 | 198 | 0.0 | 0.0 | 0.00 | 0.00 | 0.00 | 74 | 1010.0 |
| 20260508113055 | 59 | 255 | 0.0 | 0.0 | 0.00 | 0.00 | 0.00 | 74 | 1010.0 |
| 20260508111550 | 59 | 214 | 0.0 | 0.0 | 0.00 | 0.00 | 0.00 | 74 | 1010.0 |
| 20260508110051 | 60 | 338 | 0.0 | 0.0 | 0.00 | 0.00 | 0.00 | 73 | 1010.0 |
| 20260508104646 | 60 | 240 | 0.0 | 0.0 | 0.00 | 0.00 | 0.00 | 72 | 1009.9 |
| 20260508103049 | 60 | 275 | 0.0 | 0.0 | 0.00 | 0.00 | 0.00 | 72 | 1009.8 |
| 20260508101544 | 60 | 200 | 0.0 | 0.0 | 0.00 | 0.00 | 0.00 | 71 | 1009.7 |
| 20260508100058 | 61 | 337 | 0.0 | 0.0 | 0.00 | 0.00 | 0.00 | 70 | 1009.6 |
| 20260508094542 | 61 | 248 | 0.0 | 0.0 | 0.00 | 0.00 | 0.00 | 70 | 1009.6 |
| 20260508093040 | 61 | 237 | 0.0 | 0.0 | 0.00 | 0.00 | 0.00 | 70 | 1009.6 |
| 20260508091602 | 61 | 340 | 0.0 | 0.0 | 0.00 | 0.00 | 0.00 | 70 | 1009.6 |
| 20260508090043 | 61 | 213 | 0.0 | 0.0 | 0.00 | 0.00 | 0.00 | 70 | 1009.6 |
| 20260508084538 | 61 | 212 | 0.0 | 0.0 | 0.00 | 0.00 | 0.00 | 69 | 1009.7 |
| 20260508083037 | 61 | 317 | 0.0 | 0.0 | 0.00 | 0.00 | 0.00 | 68 | 1009.6 |
| 20260508081550 | 61 | 57 | 0.0 | 0.0 | 0.00 | 0.00 | 0.00 | 67 | 1009.7 |
| 20260508080040 | 61 | 238 | 0.0 | 0.0 | 0.00 | 0.00 | 0.00 | 66 | 1009.9 |
| 20260508074535 | 61 | 269 | 0.0 | 0.0 | 0.00 | 0.00 | 0.00 | 66 | 1010.1 |
| 20260508073036 | 61 | 260 | 0.0 | 0.0 | 0.00 | 0.00 | 0.00 | 65 | 1010.3 |
| 20260508071532 | 62 | 230 | 0.0 | 0.0 | 0.00 | 0.00 | 0.00 | 63 | 1010.5 |
| 20260508070023 | 62 | 208 | 0.0 | 0.0 | 0.00 | 0.00 | 0.00 | 61 | 1010.6 |
| 20260508064519 | 63 | 265 | 0.0 | 0.0 | 0.00 | 0.00 | 0.00 | 59 | 1010.9 |
| 20260508063019 | 64 | 241 | 0.0 | 0.0 | 0.00 | 0.00 | 0.00 | 56 | 1011.0 |
| 20260508061517 | 64 | 113 | 0.0 | 0.0 | 0.00 | 0.00 | 0.00 | 53 | 1011.0 |
| 20260508060021 | 64 | 121 | 0.0 | 0.0 | 0.00 | 0.00 | 0.00 | 51 | 1011.1 |
| 20260508054525 | 65 | 236 | 0.0 | 0.0 | 0.00 | 0.00 | 0.00 | 50 | 1011.0 |
| 20260508053011 | 64 | 163 | 0.0 | 0.0 | 0.00 | 0.00 | 0.00 | 51 | 1011.0 |
| 20260508051510 | 64 | 182 | 0.0 | 0.0 | 0.00 | 0.00 | 0.00 | 51 | 1010.9 |
| 20260508050008 | 64 | 161 | 0.0 | 0.0 | 0.00 | 0.00 | 0.00 | 51 | 1011.1 |
| 20260508044505 | 64 | 163 | 0.0 | 0.0 | 0.00 | 0.00 | 0.00 | 50 | 1011.1 |
| 20260508043004 | 64 | 162 | 0.0 | 0.0 | 0.00 | 0.00 | 0.00 | 50 | 1011.3 |
| 20260508041509 | 64 | 169 | 0.0 | 0.0 | 0.00 | 0.00 | 0.00 | 49 | 1011.4 |
| 20260508040004 | 64 | 169 | 0.0 | 0.0 | 0.00 | 0.00 | 0.00 | 48 | 1011.5 |
| 20260508034503 | 65 | 169 | 0.0 | 0.0 | 0.00 | 0.00 | 0.00 | 46 | 1011.5 |
| 20260508033003 | 66 | 169 | 0.0 | 0.0 | 0.00 | 0.00 | 0.00 | 44 | 1011.5 |
| 20260508031502 | 66 | 169 | 0.0 | 0.0 | 0.00 | 0.00 | 0.00 | 42 | 1011.5 |
| 20260508030002 | 67 | 177 | 0.0 | 0.0 | 0.00 | 0.00 | 0.00 | 41 | 1011.3 |
| 20260508024501 | 68 | 186 | 0.0 | 0.0 | 0.00 | 0.00 | 0.00 | 40 | 1011.2 |
| 20260508023000 | 68 | 186 | 0.0 | 0.0 | 0.00 | 0.00 | 0.00 | 38 | 1011.0 |
| 20260508021500 | 69 | 141 | 0.0 | 0.0 | 0.00 | 0.00 | 0.00 | 37 | 1011.1 |
| 20260508020107 | 70 | 141 | 0.0 | 0.0 | 0.00 | 0.00 | 0.00 | 37 | 1011.0 |
| 20260508014625 | 71 | 220 | 0.0 | 0.0 | 0.00 | 0.00 | 0.00 | 36 | 1010.9 |
| 20260508013101 | 72 | 220 | 0.0 | 0.0 | 0.00 | 0.00 | 0.00 | 35 | 1010.8 |
| 20260508011615 | 73 | 138 | 0.0 | 0.0 | 0.00 | 0.00 | 0.00 | 34 | 1010.7 |
| 20260508004558 | 75 | 147 | 0.0 | 0.0 | 0.00 | 0.00 | 0.00 | 31 | 1010.5 |
| 20260508003058 | 76 | 244 | 0.0 | 0.0 | 0.00 | 0.00 | 0.00 | 28 | 1010.4 |
| 20260508001600 | 77 | 219 | 0.0 | 0.0 | 0.00 | 0.00 | 0.00 | 28 | 1010.4 |
| 20260508000056 | 77 | 313 | 0.0 | 0.0 | 0.00 | 0.00 | 0.00 | 28 | 1010.4 |
| 20260507234556 | 78 | 271 | 0.0 | 0.0 | 0.00 | 0.00 | 0.00 | 29 | 1010.5 |
| 20260507233052 | 77 | 274 | 0.0 | 0.0 | 0.00 | 0.00 | 0.00 | 29 | 1010.7 |
| 20260507231552 | 78 | 241 | 0.0 | 0.0 | 0.00 | 0.00 | 0.00 | 28 | 1010.8 |
| 20260507230048 | 78 | 277 | 0.0 | 0.0 | 0.00 | 0.00 | 0.00 | 29 | 1010.9 |
| 20260507224548 | 79 | 93 | 0.0 | 0.0 | 0.00 | 0.00 | 0.00 | 29 | 1011.1 |
| 20260507223045 | 79 | 286 | 0.0 | 0.0 | 0.00 | 0.00 | 0.00 | 28 | 1011.1 |
| 20260507221542 | 79 | 338 | 0.0 | 0.0 | 0.00 | 0.00 | 0.00 | 28 | 1011.3 |
| 20260507220039 | 78 | 288 | 0.0 | 0.0 | 0.00 | 0.00 | 0.00 | 27 | 1011.4 |
| 20260507214544 | 78 | 284 | 0.0 | 0.0 | 0.00 | 0.00 | 0.00 | 28 | 1011.5 |
| 20260507213033 | 77 | 271 | 0.0 | 0.0 | 0.00 | 0.00 | 0.00 | 28 | 1011.7 |
| 20260507211537 | 76 | 224 | 0.0 | 0.0 | 0.00 | 0.00 | 0.00 | 29 | 1012.0 |
| 20260507210026 | 76 | 283 | 0.0 | 0.0 | 0.00 | 0.00 | 0.00 | 29 | 1012.3 |
| 20260507204524 | 76 | 270 | 0.0 | 0.0 | 0.00 | 0.00 | 0.00 | 31 | 1012.5 |